Back to catalog

IRIDIUM 145

AliveCommunicationsPO
NORAD 43253·PAYLOAD·🇺🇸 United States

Launched Mar 30, 2018 from Vandenberg Space Force Base

Loading…

Next Passes (next 24 hours)

TLE

FreshSource: CelesTrak SupGP

Epoch: Sep 14, 2026, 09:45 UTC

1 43253C 18030E   26257.40659722  .00004492  00000+0  16060-2 0  2576
2 43253  86.3912 253.0840 0002061  86.7398 170.8458 14.34213200    14

Track IRIDIUM 145 in real time with AllMySat

Download on the App Store